Year,Month,Day,Hour,Minute,Value (Times are PST for temperature in C)
2008,06,27,00,00,10.90
2008,06,27,00,01,10.90
2008,06,27,00,02,10.90
2008,06,27,00,03,10.90
2008,06,27,00,04,10.90
2008,06,27,00,05,10.90
2008,06,27,00,06,10.80
2008,06,27,00,07,10.80
2008,06,27,00,08,10.80
2008,06,27,00,09,10.80
2008,06,27,00,10,10.70
2008,06,27,00,11,10.70
2008,06,27,00,12,10.70
2008,06,27,00,13,10.70
2008,06,27,00,14,10.60
2008,06,27,00,15,10.60
2008,06,27,00,16,10.60
2008,06,27,00,17,10.50
2008,06,27,00,18,10.40
2008,06,27,00,19,10.40
2008,06,27,00,20,10.40
2008,06,27,00,21,10.30
2008,06,27,00,22,10.30
2008,06,27,00,23,10.30
2008,06,27,00,24,10.30
2008,06,27,00,25,10.30
2008,06,27,00,26,10.30
2008,06,27,00,27,10.30
2008,06,27,00,28,10.30
2008,06,27,00,29,10.30
2008,06,27,00,30,10.30
2008,06,27,00,31,10.30
2008,06,27,00,32,10.30
2008,06,27,00,33,10.30
2008,06,27,00,34,10.30
2008,06,27,00,35,10.30
2008,06,27,00,36,10.30
2008,06,27,00,37,10.30
2008,06,27,00,38,10.30
2008,06,27,00,39,10.30
2008,06,27,00,40,10.30
2008,06,27,00,41,10.30
2008,06,27,00,42,10.30
2008,06,27,00,43,10.30
2008,06,27,00,44,10.40
2008,06,27,00,45,10.40
2008,06,27,00,46,10.40
2008,06,27,00,47,10.50
2008,06,27,00,48,10.50
2008,06,27,00,49,10.50
2008,06,27,00,50,10.60
2008,06,27,00,51,10.60
2008,06,27,00,52,10.60
2008,06,27,00,53,10.60
2008,06,27,00,54,10.50
2008,06,27,00,55,10.50
2008,06,27,00,56,10.50
2008,06,27,00,57,10.50
2008,06,27,00,58,10.50
2008,06,27,00,59,10.50
2008,06,27,01,00,10.50
2008,06,27,01,01,10.50
2008,06,27,01,02,10.40
2008,06,27,01,03,10.40
2008,06,27,01,04,10.40
2008,06,27,01,05,10.40
2008,06,27,01,06,10.40
2008,06,27,01,07,10.40
2008,06,27,01,08,10.40
2008,06,27,01,09,10.40
2008,06,27,01,10,10.40
2008,06,27,01,11,10.40
2008,06,27,01,12,10.40
2008,06,27,01,13,10.40
2008,06,27,01,14,10.40
2008,06,27,01,15,10.40
2008,06,27,01,16,10.40
2008,06,27,01,17,10.40
2008,06,27,01,18,10.30
2008,06,27,01,19,10.30
2008,06,27,01,20,10.30
2008,06,27,01,21,10.30
2008,06,27,01,22,10.30
2008,06,27,01,23,10.30
2008,06,27,01,24,10.30
2008,06,27,01,25,10.30
2008,06,27,01,26,10.30
2008,06,27,01,27,10.30
2008,06,27,01,28,10.20
2008,06,27,01,29,10.20
2008,06,27,01,30,10.20
2008,06,27,01,31,10.20
2008,06,27,01,32,10.10
2008,06,27,01,33,10.10
2008,06,27,01,34,10.10
2008,06,27,01,35,10.10
2008,06,27,01,36,10.00
2008,06,27,01,37,10.00
2008,06,27,01,38,10.00
2008,06,27,01,39,9.90
2008,06,27,01,40,9.90
2008,06,27,01,41,9.90
2008,06,27,01,42,9.90
2008,06,27,01,43,9.90
2008,06,27,01,44,9.90
2008,06,27,01,45,9.90
2008,06,27,01,46,9.90
2008,06,27,01,47,9.90
2008,06,27,01,48,9.80
2008,06,27,01,49,9.80
2008,06,27,01,50,9.80
2008,06,27,01,51,9.80
2008,06,27,01,52,9.90
2008,06,27,01,53,9.90
2008,06,27,01,54,9.90
2008,06,27,01,55,9.90
2008,06,27,01,56,9.90
2008,06,27,01,57,9.90
2008,06,27,01,58,9.90
2008,06,27,01,59,9.90
2008,06,27,02,00,9.90
2008,06,27,02,01,9.90
2008,06,27,02,02,9.90
2008,06,27,02,03,9.90
2008,06,27,02,04,9.80
2008,06,27,02,05,9.80
2008,06,27,02,06,9.80
2008,06,27,02,07,9.80
2008,06,27,02,08,9.80
2008,06,27,02,09,9.80
2008,06,27,02,10,9.80
2008,06,27,02,11,9.80
2008,06,27,02,12,9.80
2008,06,27,02,13,9.80
2008,06,27,02,14,9.80
2008,06,27,02,15,9.80
2008,06,27,02,16,9.80
2008,06,27,02,17,9.80
2008,06,27,02,18,9.80
2008,06,27,02,19,9.80
2008,06,27,02,20,9.80
2008,06,27,02,21,9.80
2008,06,27,02,22,9.80
2008,06,27,02,23,9.80
2008,06,27,02,24,9.80
2008,06,27,02,25,9.80
2008,06,27,02,26,9.80
2008,06,27,02,27,9.80
2008,06,27,02,28,9.80
2008,06,27,02,29,9.80
2008,06,27,02,30,9.80
2008,06,27,02,31,9.80
2008,06,27,02,32,9.80
2008,06,27,02,33,9.80
2008,06,27,02,34,9.80
2008,06,27,02,35,9.80
2008,06,27,02,36,9.80
2008,06,27,02,37,9.80
2008,06,27,02,38,9.80
2008,06,27,02,39,9.70
2008,06,27,02,40,9.70
2008,06,27,02,41,9.70
2008,06,27,02,42,9.70
2008,06,27,02,43,9.70
2008,06,27,02,44,9.70
2008,06,27,02,45,9.60
2008,06,27,02,46,9.60
2008,06,27,02,47,9.60
2008,06,27,02,48,9.60
2008,06,27,02,49,9.60
2008,06,27,02,50,9.60
2008,06,27,02,51,9.60
2008,06,27,02,52,9.60
2008,06,27,02,53,9.60
2008,06,27,02,54,9.60
2008,06,27,02,55,9.60
2008,06,27,02,56,9.50
2008,06,27,02,57,9.50
2008,06,27,02,58,9.50
2008,06,27,02,59,9.40
2008,06,27,03,00,9.40
2008,06,27,03,01,9.40
2008,06,27,03,02,9.40
2008,06,27,03,03,9.40
2008,06,27,03,04,9.30
2008,06,27,03,05,9.30
2008,06,27,03,06,9.30
2008,06,27,03,07,9.30
2008,06,27,03,08,9.30
2008,06,27,03,09,9.20
2008,06,27,03,10,9.20
2008,06,27,03,11,9.20
2008,06,27,03,12,9.20
2008,06,27,03,13,9.20
2008,06,27,03,14,9.20
2008,06,27,03,15,9.10
2008,06,27,03,16,9.10
2008,06,27,03,17,9.10
2008,06,27,03,18,9.10
2008,06,27,03,19,9.10
2008,06,27,03,20,9.00
2008,06,27,03,21,9.00
2008,06,27,03,22,9.00
2008,06,27,03,23,9.00
2008,06,27,03,24,8.90
2008,06,27,03,25,8.90
2008,06,27,03,26,8.90
2008,06,27,03,27,8.90
2008,06,27,03,28,8.90
2008,06,27,03,29,8.90
2008,06,27,03,30,8.90
2008,06,27,03,31,8.90
2008,06,27,03,32,8.90
2008,06,27,03,33,8.90
2008,06,27,03,34,8.90
2008,06,27,03,35,8.90
2008,06,27,03,36,8.90
2008,06,27,03,37,8.90
2008,06,27,03,38,8.80
2008,06,27,03,39,8.90
2008,06,27,03,40,8.80
2008,06,27,03,41,8.80
2008,06,27,03,42,8.80
2008,06,27,03,43,8.80
2008,06,27,03,44,8.80
2008,06,27,03,45,8.80
2008,06,27,03,46,8.80
2008,06,27,03,47,8.80
2008,06,27,03,48,8.80
2008,06,27,03,49,8.80
2008,06,27,03,50,8.80
2008,06,27,03,51,8.80
2008,06,27,03,52,8.70
2008,06,27,03,53,8.70
2008,06,27,03,54,8.70
2008,06,27,03,55,8.70
2008,06,27,03,56,8.70
2008,06,27,03,57,8.60
2008,06,27,03,58,8.60
2008,06,27,03,59,8.60
2008,06,27,04,00,8.60
2008,06,27,04,01,8.60
2008,06,27,04,02,8.60
2008,06,27,04,03,8.60
2008,06,27,04,04,8.60
2008,06,27,04,05,8.50
2008,06,27,04,06,8.50
2008,06,27,04,07,8.50
2008,06,27,04,08,8.50
2008,06,27,04,09,8.50
2008,06,27,04,10,8.50
2008,06,27,04,11,8.40
2008,06,27,04,12,8.40
2008,06,27,04,13,8.40
2008,06,27,04,14,8.40
2008,06,27,04,15,8.40
2008,06,27,04,16,8.40
2008,06,27,04,17,8.40
2008,06,27,04,18,8.40
2008,06,27,04,19,8.40
2008,06,27,04,20,8.30
2008,06,27,04,21,8.30
2008,06,27,04,22,8.30
2008,06,27,04,23,8.30
2008,06,27,04,24,8.30
2008,06,27,04,25,8.30
2008,06,27,04,26,8.20
2008,06,27,04,27,8.20
2008,06,27,04,28,8.20
2008,06,27,04,29,8.20
2008,06,27,04,30,8.20
2008,06,27,04,31,8.20
2008,06,27,04,32,8.20
2008,06,27,04,33,8.20
2008,06,27,04,34,8.20
2008,06,27,04,35,8.20
2008,06,27,04,36,8.10
2008,06,27,04,37,8.10
2008,06,27,04,38,8.10
2008,06,27,04,39,8.10
2008,06,27,04,40,8.10
2008,06,27,04,41,8.10
2008,06,27,04,42,8.10
2008,06,27,04,43,8.00
2008,06,27,04,44,8.00
2008,06,27,04,45,8.00
2008,06,27,04,46,8.00
2008,06,27,04,47,8.00
2008,06,27,04,48,8.00
2008,06,27,04,49,8.00
2008,06,27,04,50,8.00
2008,06,27,04,51,7.90
2008,06,27,04,52,7.90
2008,06,27,04,53,7.90
2008,06,27,04,54,7.90
2008,06,27,04,55,7.90
2008,06,27,04,56,7.90
2008,06,27,04,57,7.90
2008,06,27,04,58,7.90
2008,06,27,04,59,7.80
2008,06,27,05,00,7.80
2008,06,27,05,01,7.80
2008,06,27,05,02,7.80
2008,06,27,05,03,7.80
2008,06,27,05,04,7.80
2008,06,27,05,05,7.80
2008,06,27,05,06,7.80
2008,06,27,05,07,7.80
2008,06,27,05,08,7.80
2008,06,27,05,09,7.80
2008,06,27,05,10,7.80
2008,06,27,05,11,7.80
2008,06,27,05,12,7.80
2008,06,27,05,13,7.80
2008,06,27,05,14,7.80
2008,06,27,05,15,7.80
2008,06,27,05,16,7.70
2008,06,27,05,17,7.70
2008,06,27,05,18,7.70
2008,06,27,05,19,7.70
2008,06,27,05,20,7.70
2008,06,27,05,21,7.70
2008,06,27,05,22,7.70
2008,06,27,05,23,7.70
2008,06,27,05,24,7.70
2008,06,27,05,25,7.70
2008,06,27,05,26,7.70
2008,06,27,05,27,7.70
2008,06,27,05,28,7.70
2008,06,27,05,29,7.70
2008,06,27,05,30,7.70
2008,06,27,05,31,7.70
2008,06,27,05,32,7.70
2008,06,27,05,33,7.70
2008,06,27,05,34,7.70
2008,06,27,05,35,7.70
2008,06,27,05,36,7.70
2008,06,27,05,37,7.70
2008,06,27,05,38,7.70
2008,06,27,05,39,7.70
2008,06,27,05,40,7.70
2008,06,27,05,41,7.70
2008,06,27,05,42,7.70
2008,06,27,05,43,7.70
2008,06,27,05,44,7.70
2008,06,27,05,45,7.70
2008,06,27,05,46,7.70
2008,06,27,05,47,7.70
2008,06,27,05,48,7.60
2008,06,27,05,49,7.60
2008,06,27,05,50,7.60
2008,06,27,05,51,7.60
2008,06,27,05,52,7.60
2008,06,27,05,53,7.60
2008,06,27,05,54,7.60
2008,06,27,05,55,7.60
2008,06,27,05,56,7.60
2008,06,27,05,57,7.60
2008,06,27,05,58,7.60
2008,06,27,05,59,7.60
2008,06,27,06,00,7.60
2008,06,27,06,01,7.60
2008,06,27,06,02,7.70
2008,06,27,06,03,7.70
2008,06,27,06,04,7.70
2008,06,27,06,05,7.60
2008,06,27,06,06,7.60
2008,06,27,06,07,7.60
2008,06,27,06,08,7.60
2008,06,27,06,09,7.60
2008,06,27,06,10,7.60
2008,06,27,06,11,7.60
2008,06,27,06,12,7.60
2008,06,27,06,13,7.60
2008,06,27,06,14,7.60
2008,06,27,06,15,7.60
2008,06,27,06,16,7.60
2008,06,27,06,17,7.70
2008,06,27,06,18,7.60
2008,06,27,06,19,7.70
2008,06,27,06,20,7.60
2008,06,27,06,21,7.60
2008,06,27,06,22,7.60
2008,06,27,06,23,7.60
2008,06,27,06,24,7.60
2008,06,27,06,25,7.60
2008,06,27,06,26,7.60
2008,06,27,06,27,7.60
2008,06,27,06,28,7.60
2008,06,27,06,29,7.60
2008,06,27,06,30,7.60
2008,06,27,06,31,7.60
2008,06,27,06,32,7.60
2008,06,27,06,33,7.60
2008,06,27,06,34,7.60
2008,06,27,06,35,7.60
2008,06,27,06,36,7.60
2008,06,27,06,37,7.60
2008,06,27,06,38,7.60
2008,06,27,06,39,7.60
2008,06,27,06,40,7.60
2008,06,27,06,41,7.60
2008,06,27,06,42,7.60
2008,06,27,06,43,7.60
2008,06,27,06,44,7.60
2008,06,27,06,45,7.60
2008,06,27,06,46,7.70
2008,06,27,06,47,7.70
2008,06,27,06,48,7.70
2008,06,27,06,49,7.70
2008,06,27,06,50,7.70
2008,06,27,06,51,7.70
2008,06,27,06,52,7.70
2008,06,27,06,53,7.80
2008,06,27,06,54,7.80
2008,06,27,06,55,7.80
2008,06,27,06,56,7.80
2008,06,27,06,57,7.90
2008,06,27,06,58,7.90
2008,06,27,06,59,7.90
2008,06,27,07,00,7.90
2008,06,27,07,01,8.00
2008,06,27,07,02,8.00
2008,06,27,07,03,8.10
2008,06,27,07,04,8.10
2008,06,27,07,05,8.10
2008,06,27,07,06,8.20
2008,06,27,07,07,8.20
2008,06,27,07,08,8.30
2008,06,27,07,09,8.30
2008,06,27,07,10,8.40
2008,06,27,07,11,8.50
2008,06,27,07,12,8.60
2008,06,27,07,13,8.70
2008,06,27,07,14,8.70
2008,06,27,07,15,8.80
2008,06,27,07,16,8.90
2008,06,27,07,17,9.00
2008,06,27,07,18,9.10
2008,06,27,07,19,9.20
2008,06,27,07,20,9.30
2008,06,27,07,21,9.30
2008,06,27,07,22,9.40
2008,06,27,07,23,9.50
2008,06,27,07,24,9.60
2008,06,27,07,25,9.60
2008,06,27,07,26,9.70
2008,06,27,07,27,9.80
2008,06,27,07,28,9.90
2008,06,27,07,29,9.90
2008,06,27,07,30,10.00
2008,06,27,07,31,10.10
2008,06,27,07,32,10.20
2008,06,27,07,33,10.40
2008,06,27,07,34,10.50
2008,06,27,07,35,10.60
2008,06,27,07,36,10.70
2008,06,27,07,37,10.80
2008,06,27,07,38,10.80
2008,06,27,07,39,10.90
2008,06,27,07,40,11.00
2008,06,27,07,41,11.10
2008,06,27,07,42,11.20
2008,06,27,07,43,11.30
2008,06,27,07,44,11.40
2008,06,27,07,45,11.50
2008,06,27,07,46,11.60
2008,06,27,07,47,11.70
2008,06,27,07,48,11.80
2008,06,27,07,49,11.80
2008,06,27,07,50,11.90
2008,06,27,07,51,12.00
2008,06,27,07,52,12.10
2008,06,27,07,53,12.10
2008,06,27,07,54,12.20
2008,06,27,07,55,12.20
2008,06,27,07,56,12.30
2008,06,27,07,57,12.40
2008,06,27,07,58,12.50
2008,06,27,07,59,12.70
2008,06,27,08,00,12.80
2008,06,27,08,01,12.90
2008,06,27,08,02,13.10
2008,06,27,08,03,13.20
2008,06,27,08,04,13.30
2008,06,27,08,05,13.40
2008,06,27,08,06,13.50
2008,06,27,08,07,13.60
2008,06,27,08,08,13.70
2008,06,27,08,09,13.70
2008,06,27,08,10,13.80
2008,06,27,08,11,13.80
2008,06,27,08,12,13.80
2008,06,27,08,13,13.90
2008,06,27,08,14,13.90
2008,06,27,08,15,13.90
2008,06,27,08,16,13.90
2008,06,27,08,17,13.90
2008,06,27,08,18,14.00
2008,06,27,08,19,14.10
2008,06,27,08,20,14.10
2008,06,27,08,21,14.20
2008,06,27,08,22,14.30
2008,06,27,08,23,14.40
2008,06,27,08,24,14.40
2008,06,27,08,25,14.40
2008,06,27,08,26,14.40
2008,06,27,08,27,14.40
2008,06,27,08,28,14.30
2008,06,27,08,29,14.30
2008,06,27,08,30,14.20
2008,06,27,08,31,14.20
2008,06,27,08,32,14.10
2008,06,27,08,33,14.10
2008,06,27,08,34,14.10
2008,06,27,08,35,14.10
2008,06,27,08,36,14.10
2008,06,27,08,37,14.10
2008,06,27,08,38,14.10
2008,06,27,08,39,14.10
2008,06,27,08,40,14.10
2008,06,27,08,41,14.10
2008,06,27,08,42,14.20
2008,06,27,08,43,14.20
2008,06,27,08,44,14.30
2008,06,27,08,45,14.30
2008,06,27,08,46,14.30
2008,06,27,08,47,14.30
2008,06,27,08,48,14.30
2008,06,27,08,49,14.40
2008,06,27,08,50,14.40
2008,06,27,08,51,14.40
2008,06,27,08,52,14.50
2008,06,27,08,53,14.50
2008,06,27,08,54,14.60
2008,06,27,08,55,14.60
2008,06,27,08,56,14.60
2008,06,27,08,57,14.70
2008,06,27,08,58,14.70
2008,06,27,08,59,14.70
2008,06,27,09,00,14.80
2008,06,27,09,01,14.90
2008,06,27,09,02,15.00
2008,06,27,09,03,15.00
2008,06,27,09,04,15.00
2008,06,27,09,05,15.00
2008,06,27,09,06,15.00
2008,06,27,09,07,15.00
2008,06,27,09,08,15.20
2008,06,27,09,09,15.30
2008,06,27,09,10,15.40
2008,06,27,09,11,15.40
2008,06,27,09,12,15.50
2008,06,27,09,13,15.50
2008,06,27,09,14,15.60
2008,06,27,09,15,15.60
2008,06,27,09,16,15.70
2008,06,27,09,17,15.80
2008,06,27,09,18,15.80
2008,06,27,09,19,15.90
2008,06,27,09,20,16.00
2008,06,27,09,21,16.10
2008,06,27,09,22,16.20
2008,06,27,09,23,16.20
2008,06,27,09,24,16.20
2008,06,27,09,25,16.20
2008,06,27,09,26,16.20
2008,06,27,09,27,16.20
2008,06,27,09,28,16.20
2008,06,27,09,29,16.30
2008,06,27,09,30,16.30
2008,06,27,09,31,16.40
2008,06,27,09,32,16.50
2008,06,27,09,33,16.60
2008,06,27,09,34,16.80
2008,06,27,09,35,16.90
2008,06,27,09,36,17.00
2008,06,27,09,37,17.10
2008,06,27,09,38,17.10
2008,06,27,09,39,17.10
2008,06,27,09,40,17.10
2008,06,27,09,41,17.20
2008,06,27,09,42,17.20
2008,06,27,09,43,17.20
2008,06,27,09,44,17.20
2008,06,27,09,45,17.20
2008,06,27,09,46,17.20
2008,06,27,09,47,17.30
2008,06,27,09,48,17.40
2008,06,27,09,49,17.50
2008,06,27,09,50,17.50
2008,06,27,09,51,17.60
2008,06,27,09,52,17.60
2008,06,27,09,53,17.70
2008,06,27,09,54,17.70
2008,06,27,09,55,17.70
2008,06,27,09,56,17.70
2008,06,27,09,57,17.60
2008,06,27,09,58,17.50
2008,06,27,09,59,17.40
2008,06,27,10,00,17.50
2008,06,27,10,01,17.50
2008,06,27,10,02,17.60
2008,06,27,10,03,17.60
2008,06,27,10,04,17.70
2008,06,27,10,05,17.70
2008,06,27,10,06,17.80
2008,06,27,10,07,17.90
2008,06,27,10,08,17.90
2008,06,27,10,09,18.00
2008,06,27,10,10,18.00
2008,06,27,10,11,18.10
2008,06,27,10,12,18.20
2008,06,27,10,13,18.10
2008,06,27,10,14,18.10
2008,06,27,10,15,18.10
2008,06,27,10,16,18.10
2008,06,27,10,17,18.00
2008,06,27,10,18,17.90
2008,06,27,10,19,17.90
2008,06,27,10,20,17.90
2008,06,27,10,21,17.90
2008,06,27,10,22,18.00
2008,06,27,10,23,18.10
2008,06,27,10,24,18.20
2008,06,27,10,25,18.20
2008,06,27,10,26,18.30
2008,06,27,10,27,18.50
2008,06,27,10,28,18.60
2008,06,27,10,29,18.70
2008,06,27,10,30,18.80
2008,06,27,10,31,18.80
2008,06,27,10,32,18.90
2008,06,27,10,33,18.90
2008,06,27,10,34,18.80
2008,06,27,10,35,18.70
2008,06,27,10,36,18.60
2008,06,27,10,37,18.50
2008,06,27,10,38,18.40
2008,06,27,10,39,18.50
2008,06,27,10,40,18.60
2008,06,27,10,41,18.70
2008,06,27,10,42,18.70
2008,06,27,10,43,18.80
2008,06,27,10,44,18.90
2008,06,27,10,45,19.00
2008,06,27,10,46,19.10
2008,06,27,10,47,19.10
2008,06,27,10,48,19.10
2008,06,27,10,49,19.00
2008,06,27,10,50,19.00
2008,06,27,10,51,18.90
2008,06,27,10,52,18.90
2008,06,27,10,53,19.00
2008,06,27,10,54,19.10
2008,06,27,10,55,19.20
2008,06,27,10,56,19.30
2008,06,27,10,57,19.30
2008,06,27,10,58,19.40
2008,06,27,10,59,19.50
2008,06,27,11,00,19.60
2008,06,27,11,01,19.70
2008,06,27,11,02,19.70
2008,06,27,11,03,19.70
2008,06,27,11,04,19.70
2008,06,27,11,05,19.60
2008,06,27,11,06,19.50
2008,06,27,11,07,19.50
2008,06,27,11,08,19.40
2008,06,27,11,09,19.50
2008,06,27,11,10,19.50
2008,06,27,11,11,19.40
2008,06,27,11,12,19.40
2008,06,27,11,13,19.30
2008,06,27,11,14,19.20
2008,06,27,11,15,19.20
2008,06,27,11,16,19.20
2008,06,27,11,17,19.20
2008,06,27,11,18,19.30
2008,06,27,11,19,19.40
2008,06,27,11,20,19.50
2008,06,27,11,21,19.60
2008,06,27,11,22,19.60
2008,06,27,11,23,19.60
2008,06,27,11,24,19.60
2008,06,27,11,25,19.60
2008,06,27,11,26,19.70
2008,06,27,11,27,19.70
2008,06,27,11,28,19.70
2008,06,27,11,29,19.70
2008,06,27,11,30,19.80
2008,06,27,11,31,19.90
2008,06,27,11,32,20.00
2008,06,27,11,33,20.00
2008,06,27,11,34,20.10
2008,06,27,11,35,20.10
2008,06,27,11,36,20.10
2008,06,27,11,37,20.20
2008,06,27,11,38,20.20
2008,06,27,11,39,20.10
2008,06,27,11,40,20.10
2008,06,27,11,41,20.10
2008,06,27,11,42,20.10
2008,06,27,11,43,20.10
2008,06,27,11,44,20.10
2008,06,27,11,45,20.10
2008,06,27,11,46,20.10
2008,06,27,11,47,20.20
2008,06,27,11,48,20.10
2008,06,27,11,49,20.10
2008,06,27,11,50,20.20
2008,06,27,11,51,20.30
2008,06,27,11,52,20.40
2008,06,27,11,53,20.40
2008,06,27,11,54,20.50
2008,06,27,11,55,20.60
2008,06,27,11,56,20.70
2008,06,27,11,57,20.80
2008,06,27,11,58,21.00
2008,06,27,11,59,21.10
2008,06,27,12,00,21.10
2008,06,27,12,01,21.10
2008,06,27,12,02,21.00
2008,06,27,12,03,21.00
2008,06,27,12,04,20.80
2008,06,27,12,05,20.70
2008,06,27,12,06,20.70
2008,06,27,12,07,20.70
2008,06,27,12,08,20.70
2008,06,27,12,09,20.80
2008,06,27,12,10,20.80
2008,06,27,12,11,20.90
2008,06,27,12,12,21.00
2008,06,27,12,13,21.10
2008,06,27,12,14,21.10
2008,06,27,12,15,21.20
2008,06,27,12,16,21.30
2008,06,27,12,17,21.30
2008,06,27,12,18,21.30
2008,06,27,12,19,21.30
2008,06,27,12,20,21.40
2008,06,27,12,21,21.40
2008,06,27,12,22,21.50
2008,06,27,12,23,21.60
2008,06,27,12,24,21.60
2008,06,27,12,25,21.70
2008,06,27,12,26,21.70
2008,06,27,12,27,21.70
2008,06,27,12,28,21.70
2008,06,27,12,29,21.80
2008,06,27,12,30,21.80
2008,06,27,12,31,21.70
2008,06,27,12,32,21.70
2008,06,27,12,33,21.60
2008,06,27,12,34,21.70
2008,06,27,12,35,21.80
2008,06,27,12,36,21.80
2008,06,27,12,37,21.90
2008,06,27,12,38,22.00
2008,06,27,12,39,22.10
2008,06,27,12,40,22.30
2008,06,27,12,41,22.50
2008,06,27,12,42,22.60
2008,06,27,12,43,22.50
2008,06,27,12,44,22.50
2008,06,27,12,45,22.40
2008,06,27,12,46,22.30
2008,06,27,12,47,22.30
2008,06,27,12,48,22.20
2008,06,27,12,49,22.20
2008,06,27,12,50,22.20
2008,06,27,12,51,22.10
2008,06,27,12,52,22.10
2008,06,27,12,53,22.10
2008,06,27,12,54,22.10
2008,06,27,12,55,22.20
2008,06,27,12,56,22.30
2008,06,27,12,57,22.30
2008,06,27,12,58,22.30
2008,06,27,12,59,22.40
2008,06,27,13,00,22.50
2008,06,27,13,01,22.60
2008,06,27,13,02,22.70
2008,06,27,13,03,22.60
2008,06,27,13,04,22.50
2008,06,27,13,05,22.50
2008,06,27,13,06,22.50
2008,06,27,13,07,22.60
2008,06,27,13,08,22.60
2008,06,27,13,09,22.60
2008,06,27,13,10,22.60
2008,06,27,13,11,22.60
2008,06,27,13,12,22.60
2008,06,27,13,13,22.60
2008,06,27,13,14,22.60
2008,06,27,13,15,22.70
2008,06,27,13,16,22.80
2008,06,27,13,17,22.80
2008,06,27,13,18,22.80
2008,06,27,13,19,22.90
2008,06,27,13,20,22.90
2008,06,27,13,21,22.90
2008,06,27,13,22,22.90
2008,06,27,13,23,22.80
2008,06,27,13,24,22.70
2008,06,27,13,25,22.70
2008,06,27,13,26,22.70
2008,06,27,13,27,22.60
2008,06,27,13,28,22.50
2008,06,27,13,29,22.50
2008,06,27,13,30,22.40
2008,06,27,13,31,22.50
2008,06,27,13,32,22.50
2008,06,27,13,33,22.50
2008,06,27,13,34,22.50
2008,06,27,13,35,22.50
2008,06,27,13,36,22.40
2008,06,27,13,37,22.40
2008,06,27,13,38,22.40
2008,06,27,13,39,22.40
2008,06,27,13,40,22.40
2008,06,27,13,41,22.40
2008,06,27,13,42,22.40
2008,06,27,13,43,22.50
2008,06,27,13,44,22.50
2008,06,27,13,45,22.60
2008,06,27,13,46,22.60
2008,06,27,13,47,22.70
2008,06,27,13,48,22.70
2008,06,27,13,49,22.80
2008,06,27,13,50,22.80
2008,06,27,13,51,22.80
2008,06,27,13,52,22.70
2008,06,27,13,53,22.80
2008,06,27,13,54,22.90
2008,06,27,13,55,22.90
2008,06,27,13,56,22.90
2008,06,27,13,57,22.90
2008,06,27,13,58,22.90
2008,06,27,13,59,22.90
2008,06,27,14,00,23.00
2008,06,27,14,01,23.10
2008,06,27,14,02,23.10
2008,06,27,14,03,23.20
2008,06,27,14,04,23.20
2008,06,27,14,05,23.30
2008,06,27,14,06,23.40
2008,06,27,14,07,23.50
2008,06,27,14,08,23.60
2008,06,27,14,09,23.70
2008,06,27,14,10,23.80
2008,06,27,14,11,23.80
2008,06,27,14,12,23.80
2008,06,27,14,13,23.80
2008,06,27,14,14,23.80
2008,06,27,14,15,23.70
2008,06,27,14,16,23.70
2008,06,27,14,17,23.70
2008,06,27,14,18,23.80
2008,06,27,14,19,23.80
2008,06,27,14,20,23.80
2008,06,27,14,21,23.80
2008,06,27,14,22,23.80
2008,06,27,14,23,23.80
2008,06,27,14,24,23.90
2008,06,27,14,25,24.00
2008,06,27,14,26,24.00
2008,06,27,14,27,24.10
2008,06,27,14,28,24.10
2008,06,27,14,29,24.00
2008,06,27,14,30,23.90
2008,06,27,14,31,23.90
2008,06,27,14,32,23.90
2008,06,27,14,33,23.90
2008,06,27,14,34,23.90
2008,06,27,14,35,23.80
2008,06,27,14,36,23.70
2008,06,27,14,37,23.70
2008,06,27,14,38,23.70
2008,06,27,14,39,23.70
2008,06,27,14,40,23.70
2008,06,27,14,41,23.70
2008,06,27,14,42,23.70
2008,06,27,14,43,23.70
2008,06,27,14,44,23.70
2008,06,27,14,45,23.80
2008,06,27,14,46,23.80
2008,06,27,14,47,23.80
2008,06,27,14,48,23.70
2008,06,27,14,49,23.70
2008,06,27,14,50,23.80
2008,06,27,14,51,23.80
2008,06,27,14,52,23.90
2008,06,27,14,53,23.90
2008,06,27,14,54,23.90
2008,06,27,14,55,24.00
2008,06,27,14,56,24.10
2008,06,27,14,57,24.00
2008,06,27,14,58,23.90
2008,06,27,14,59,23.80
2008,06,27,15,00,23.80
2008,06,27,15,01,23.90
2008,06,27,15,02,24.00
2008,06,27,15,03,24.10
2008,06,27,15,04,24.00
2008,06,27,15,05,23.90
2008,06,27,15,06,23.90
2008,06,27,15,07,24.00
2008,06,27,15,08,24.00
2008,06,27,15,09,24.10
2008,06,27,15,10,24.10
2008,06,27,15,11,24.20
2008,06,27,15,12,24.20
2008,06,27,15,13,24.20
2008,06,27,15,14,24.30
2008,06,27,15,15,24.30
2008,06,27,15,16,24.40
2008,06,27,15,17,24.50
2008,06,27,15,18,24.50
2008,06,27,15,19,24.40
2008,06,27,15,20,24.30
2008,06,27,15,21,24.30
2008,06,27,15,22,24.20
2008,06,27,15,23,24.10
2008,06,27,15,24,24.00
2008,06,27,15,25,24.00
2008,06,27,15,26,24.00
2008,06,27,15,27,24.00
2008,06,27,15,28,24.00
2008,06,27,15,29,23.90
2008,06,27,15,30,23.90
2008,06,27,15,31,23.90
2008,06,27,15,32,23.80
2008,06,27,15,33,23.80
2008,06,27,15,34,23.70
2008,06,27,15,35,23.70
2008,06,27,15,36,23.60
2008,06,27,15,37,23.60
2008,06,27,15,38,23.60
2008,06,27,15,39,23.60
2008,06,27,15,40,23.70
2008,06,27,15,41,23.70
2008,06,27,15,42,23.80
2008,06,27,15,43,24.00
2008,06,27,15,44,24.00
2008,06,27,15,45,24.10
2008,06,27,15,46,24.10
2008,06,27,15,47,24.10
2008,06,27,15,48,24.00
2008,06,27,15,49,24.00
2008,06,27,15,50,24.00
2008,06,27,15,51,23.90
2008,06,27,15,52,23.90
2008,06,27,15,53,23.90
2008,06,27,15,54,23.90
2008,06,27,15,55,23.90
2008,06,27,15,56,24.00
2008,06,27,15,57,24.10
2008,06,27,15,58,24.10
2008,06,27,15,59,24.10
2008,06,27,16,00,24.10
2008,06,27,16,01,24.20
2008,06,27,16,02,24.30
2008,06,27,16,03,24.30
2008,06,27,16,04,24.20
2008,06,27,16,05,24.10
2008,06,27,16,06,24.00
2008,06,27,16,07,23.90
2008,06,27,16,08,23.90
2008,06,27,16,09,23.90
2008,06,27,16,10,23.90
2008,06,27,16,11,24.00
2008,06,27,16,12,24.00
2008,06,27,16,13,24.00
2008,06,27,16,14,24.00
2008,06,27,16,15,23.90
2008,06,27,16,16,23.80
2008,06,27,16,17,23.80
2008,06,27,16,18,23.80
2008,06,27,16,19,23.90
2008,06,27,16,20,24.00
2008,06,27,16,21,24.10
2008,06,27,16,22,24.20
2008,06,27,16,23,24.30
2008,06,27,16,24,24.30
2008,06,27,16,25,24.40
2008,06,27,16,26,24.40
2008,06,27,16,27,24.40
2008,06,27,16,28,24.40
2008,06,27,16,29,24.40
2008,06,27,16,30,24.30
2008,06,27,16,31,24.30
2008,06,27,16,32,24.10
2008,06,27,16,33,24.10
2008,06,27,16,34,24.00
2008,06,27,16,35,23.90
2008,06,27,16,36,23.90
2008,06,27,16,37,23.90
2008,06,27,16,38,24.00
2008,06,27,16,39,24.00
2008,06,27,16,40,24.10
2008,06,27,16,41,24.20
2008,06,27,16,42,24.30
2008,06,27,16,43,24.40
2008,06,27,16,44,24.40
2008,06,27,16,45,24.50
2008,06,27,16,46,24.60
2008,06,27,16,47,24.60
2008,06,27,16,48,24.70
2008,06,27,16,49,24.70
2008,06,27,16,50,24.70
2008,06,27,16,51,24.60
2008,06,27,16,52,24.50
2008,06,27,16,53,24.50
2008,06,27,16,54,24.40
2008,06,27,16,55,24.30
2008,06,27,16,56,24.20
2008,06,27,16,57,24.10
2008,06,27,16,58,24.10
2008,06,27,16,59,24.20
2008,06,27,17,00,24.20
2008,06,27,17,01,24.20
2008,06,27,17,02,24.30
2008,06,27,17,03,24.30
2008,06,27,17,04,24.40
2008,06,27,17,05,24.40
2008,06,27,17,06,24.50
2008,06,27,17,07,24.60
2008,06,27,17,08,24.60
2008,06,27,17,09,24.60
2008,06,27,17,10,24.60
2008,06,27,17,11,24.60
2008,06,27,17,12,24.60
2008,06,27,17,13,24.50
2008,06,27,17,14,24.40
2008,06,27,17,15,24.30
2008,06,27,17,16,24.30
2008,06,27,17,17,24.30
2008,06,27,17,18,24.20
2008,06,27,17,19,24.20
2008,06,27,17,20,24.20
2008,06,27,17,21,24.20
2008,06,27,17,22,24.20
2008,06,27,17,23,24.20
2008,06,27,17,24,24.20
2008,06,27,17,25,24.20
2008,06,27,17,26,24.30
2008,06,27,17,27,24.30
2008,06,27,17,28,24.30
2008,06,27,17,29,24.30
2008,06,27,17,30,24.30
2008,06,27,17,31,24.20
2008,06,27,17,32,24.10
2008,06,27,17,33,24.10
2008,06,27,17,34,24.10